Voltar ao catálogo

COSMOS 2251 DEB

AtivoLEO
NORAD 33971·DEBRIS·🇷🇺 Russia

Lançado Jun 16, 1993 de Plesetsk Cosmodrome

Loading…

Próximas Passagens (próximas 24 horas)

TLE

AtualizadoSource: Space-Track

Época: Sep 14, 2026, 08:45 UTC

1 33971U 93036FE  26257.36512258  .00000415  00000-0  13964-3 0  9994
2 33971  74.0228 104.1421 0018392 144.1596  28.5828 14.40121475921064

Acompanhe COSMOS 2251 DEB em tempo real com AllMySat

Download on the App Store